Year,Month,Day,Hour,Minute,Value (Times are PST for temperature in C)
2021,06,27,00,00,24.30
2021,06,27,00,01,24.30
2021,06,27,00,02,24.20
2021,06,27,00,03,24.20
2021,06,27,00,04,24.20
2021,06,27,00,05,24.20
2021,06,27,00,06,24.20
2021,06,27,00,07,24.20
2021,06,27,00,08,24.20
2021,06,27,00,09,24.20
2021,06,27,00,10,24.20
2021,06,27,00,11,24.20
2021,06,27,00,12,24.20
2021,06,27,00,13,24.20
2021,06,27,00,14,24.20
2021,06,27,00,15,24.20
2021,06,27,00,16,24.20
2021,06,27,00,17,24.20
2021,06,27,00,18,24.20
2021,06,27,00,19,24.20
2021,06,27,00,20,24.20
2021,06,27,00,21,24.20
2021,06,27,00,22,24.20
2021,06,27,00,23,24.10
2021,06,27,00,24,24.20
2021,06,27,00,25,24.20
2021,06,27,00,26,24.20
2021,06,27,00,27,24.20
2021,06,27,00,28,24.20
2021,06,27,00,29,24.20
2021,06,27,00,30,24.20
2021,06,27,00,31,24.10
2021,06,27,00,32,24.10
2021,06,27,00,33,24.10
2021,06,27,00,34,24.10
2021,06,27,00,35,24.10
2021,06,27,00,36,24.10
2021,06,27,00,37,24.10
2021,06,27,00,38,24.20
2021,06,27,00,39,24.20
2021,06,27,00,40,24.20
2021,06,27,00,41,24.20
2021,06,27,00,42,24.20
2021,06,27,00,43,24.20
2021,06,27,00,44,24.20
2021,06,27,00,45,24.10
2021,06,27,00,46,24.10
2021,06,27,00,47,24.10
2021,06,27,00,48,24.00
2021,06,27,00,49,24.00
2021,06,27,00,50,23.90
2021,06,27,00,51,23.90
2021,06,27,00,52,23.90
2021,06,27,00,53,23.90
2021,06,27,00,54,23.90
2021,06,27,00,55,23.90
2021,06,27,00,56,23.90
2021,06,27,00,57,23.90
2021,06,27,00,58,23.90
2021,06,27,00,59,23.90
2021,06,27,01,00,23.90
2021,06,27,01,01,23.90
2021,06,27,01,02,23.90
2021,06,27,01,03,23.80
2021,06,27,01,04,23.80
2021,06,27,01,05,23.80
2021,06,27,01,06,23.80
2021,06,27,01,07,23.80
2021,06,27,01,08,23.80
2021,06,27,01,09,23.80
2021,06,27,01,10,23.80
2021,06,27,01,11,23.80
2021,06,27,01,12,23.80
2021,06,27,01,13,23.80
2021,06,27,01,14,23.80
2021,06,27,01,15,23.80
2021,06,27,01,16,23.80
2021,06,27,01,17,23.90
2021,06,27,01,18,23.90
2021,06,27,01,19,23.90
2021,06,27,01,20,23.90
2021,06,27,01,21,23.90
2021,06,27,01,22,23.90
2021,06,27,01,23,23.90
2021,06,27,01,24,23.90
2021,06,27,01,25,23.90
2021,06,27,01,26,23.90
2021,06,27,01,27,23.90
2021,06,27,01,28,23.90
2021,06,27,01,29,23.80
2021,06,27,01,30,23.80
2021,06,27,01,31,23.70
2021,06,27,01,32,23.70
2021,06,27,01,33,23.70
2021,06,27,01,34,23.70
2021,06,27,01,35,23.70
2021,06,27,01,36,23.70
2021,06,27,01,37,23.70
2021,06,27,01,38,23.70
2021,06,27,01,39,23.60
2021,06,27,01,40,23.60
2021,06,27,01,41,23.60
2021,06,27,01,42,23.50
2021,06,27,01,43,23.50
2021,06,27,01,44,23.50
2021,06,27,01,45,23.40
2021,06,27,01,46,23.40
2021,06,27,01,47,23.40
2021,06,27,01,48,23.30
2021,06,27,01,49,23.30
2021,06,27,01,50,23.30
2021,06,27,01,51,23.30
2021,06,27,01,52,23.30
2021,06,27,01,53,23.30
2021,06,27,01,54,23.30
2021,06,27,01,55,23.30
2021,06,27,01,56,23.20
2021,06,27,01,57,23.20
2021,06,27,01,58,23.20
2021,06,27,01,59,23.20
2021,06,27,02,00,23.20
2021,06,27,02,01,23.10
2021,06,27,02,02,23.10
2021,06,27,02,03,23.10
2021,06,27,02,04,23.10
2021,06,27,02,05,23.10
2021,06,27,02,06,23.10
2021,06,27,02,07,23.10
2021,06,27,02,08,23.10
2021,06,27,02,09,23.10
2021,06,27,02,10,23.00
2021,06,27,02,11,23.00
2021,06,27,02,12,23.00
2021,06,27,02,13,23.00
2021,06,27,02,14,23.00
2021,06,27,02,15,23.10
2021,06,27,02,16,23.10
2021,06,27,02,17,23.10
2021,06,27,02,18,23.10
2021,06,27,02,19,23.20
2021,06,27,02,20,23.20
2021,06,27,02,21,23.20
2021,06,27,02,22,23.20
2021,06,27,02,23,23.20
2021,06,27,02,24,23.20
2021,06,27,02,25,23.20
2021,06,27,02,26,23.20
2021,06,27,02,27,23.20
2021,06,27,02,28,23.20
2021,06,27,02,29,23.20
2021,06,27,02,30,23.10
2021,06,27,02,31,23.10
2021,06,27,02,32,23.10
2021,06,27,02,33,23.00
2021,06,27,02,34,23.00
2021,06,27,02,35,22.90
2021,06,27,02,36,22.90
2021,06,27,02,37,22.90
2021,06,27,02,38,22.80
2021,06,27,02,39,22.80
2021,06,27,02,40,22.80
2021,06,27,02,41,22.80
2021,06,27,02,42,22.80
2021,06,27,02,43,22.80
2021,06,27,02,44,22.80
2021,06,27,02,45,22.80
2021,06,27,02,46,22.80
2021,06,27,02,47,22.80
2021,06,27,02,48,22.80
2021,06,27,02,49,22.80
2021,06,27,02,50,22.80
2021,06,27,02,51,22.80
2021,06,27,02,52,22.80
2021,06,27,02,53,22.80
2021,06,27,02,54,22.80
2021,06,27,02,55,22.80
2021,06,27,02,56,22.80
2021,06,27,02,57,22.80
2021,06,27,02,58,22.80
2021,06,27,02,59,22.80
2021,06,27,03,00,22.80
2021,06,27,03,01,22.70
2021,06,27,03,02,22.80
2021,06,27,03,03,22.80
2021,06,27,03,04,22.80
2021,06,27,03,05,22.80
2021,06,27,03,06,22.80
2021,06,27,03,07,22.80
2021,06,27,03,08,22.80
2021,06,27,03,09,22.80
2021,06,27,03,10,22.80
2021,06,27,03,11,22.90
2021,06,27,03,12,22.90
2021,06,27,03,13,22.90
2021,06,27,03,14,22.90
2021,06,27,03,15,22.90
2021,06,27,03,16,22.90
2021,06,27,03,17,22.80
2021,06,27,03,18,22.80
2021,06,27,03,19,22.80
2021,06,27,03,20,22.80
2021,06,27,03,21,22.80
2021,06,27,03,22,22.70
2021,06,27,03,23,22.70
2021,06,27,03,24,22.70
2021,06,27,03,25,22.70
2021,06,27,03,26,22.70
2021,06,27,03,27,22.70
2021,06,27,03,28,22.70
2021,06,27,03,29,22.60
2021,06,27,03,30,22.60
2021,06,27,03,31,22.60
2021,06,27,03,32,22.60
2021,06,27,03,33,22.60
2021,06,27,03,34,22.60
2021,06,27,03,35,22.60
2021,06,27,03,36,22.60
2021,06,27,03,37,22.60
2021,06,27,03,38,22.50
2021,06,27,03,39,22.50
2021,06,27,03,40,22.50
2021,06,27,03,41,22.60
2021,06,27,03,42,22.60
2021,06,27,03,43,22.60
2021,06,27,03,44,22.60
2021,06,27,03,45,22.70
2021,06,27,03,46,22.70
2021,06,27,03,47,22.70
2021,06,27,03,48,22.70
2021,06,27,03,49,22.70
2021,06,27,03,50,22.70
2021,06,27,03,51,22.70
2021,06,27,03,52,22.70
2021,06,27,03,53,22.60
2021,06,27,03,54,22.60
2021,06,27,03,55,22.60
2021,06,27,03,56,22.50
2021,06,27,03,57,22.50
2021,06,27,03,58,22.50
2021,06,27,03,59,22.50
2021,06,27,04,00,22.50
2021,06,27,04,01,22.40
2021,06,27,04,02,22.40
2021,06,27,04,03,22.40
2021,06,27,04,04,22.40
2021,06,27,04,08,22.40
2021,06,27,04,09,22.40
2021,06,27,04,10,22.40
2021,06,27,04,11,22.30
2021,06,27,04,12,22.30
2021,06,27,04,13,22.30
2021,06,27,04,14,22.30
2021,06,27,04,15,22.30
2021,06,27,04,16,22.30
2021,06,27,04,17,22.30
2021,06,27,04,18,22.20
2021,06,27,04,19,22.20
2021,06,27,04,20,22.20
2021,06,27,04,21,22.20
2021,06,27,04,22,22.20
2021,06,27,04,23,22.20
2021,06,27,04,24,22.20
2021,06,27,04,25,22.20
2021,06,27,04,26,22.20
2021,06,27,04,27,22.20
2021,06,27,04,28,22.20
2021,06,27,04,29,22.20
2021,06,27,04,30,22.20
2021,06,27,04,31,22.20
2021,06,27,04,32,22.20
2021,06,27,04,33,22.20
2021,06,27,04,34,22.20
2021,06,27,04,35,22.20
2021,06,27,04,36,22.20
2021,06,27,04,37,22.20
2021,06,27,04,38,22.10
2021,06,27,04,39,22.10
2021,06,27,04,40,22.10
2021,06,27,04,41,22.10
2021,06,27,04,42,22.10
2021,06,27,04,43,22.10
2021,06,27,04,44,22.10
2021,06,27,04,45,22.10
2021,06,27,04,46,22.10
2021,06,27,04,47,22.10
2021,06,27,04,48,22.10
2021,06,27,04,49,22.00
2021,06,27,04,50,22.00
2021,06,27,04,51,22.00
2021,06,27,04,52,22.00
2021,06,27,04,53,22.00
2021,06,27,04,54,22.00
2021,06,27,04,55,22.00
2021,06,27,04,56,22.00
2021,06,27,04,57,22.00
2021,06,27,04,58,22.00
2021,06,27,04,59,22.00
2021,06,27,05,00,21.90
2021,06,27,05,01,22.00
2021,06,27,05,02,21.90
2021,06,27,05,03,21.90
2021,06,27,05,04,21.90
2021,06,27,05,05,21.90
2021,06,27,05,06,21.90
2021,06,27,05,07,21.90
2021,06,27,05,08,21.90
2021,06,27,05,09,21.90
2021,06,27,05,10,21.90
2021,06,27,05,11,22.00
2021,06,27,05,12,22.00
2021,06,27,05,13,22.00
2021,06,27,05,14,22.10
2021,06,27,05,15,22.10
2021,06,27,05,16,22.10
2021,06,27,05,17,22.20
2021,06,27,05,18,22.20
2021,06,27,05,19,22.30
2021,06,27,05,20,22.30
2021,06,27,05,21,22.40
2021,06,27,05,22,22.40
2021,06,27,05,23,22.40
2021,06,27,05,24,22.50
2021,06,27,05,25,22.50
2021,06,27,05,26,22.60
2021,06,27,05,27,22.60
2021,06,27,05,28,22.60
2021,06,27,05,29,22.60
2021,06,27,05,30,22.60
2021,06,27,05,31,22.70
2021,06,27,05,32,22.70
2021,06,27,05,33,22.70
2021,06,27,05,34,22.70
2021,06,27,05,35,22.70
2021,06,27,05,36,22.70
2021,06,27,05,37,22.70
2021,06,27,05,38,22.80
2021,06,27,05,39,22.80
2021,06,27,05,40,22.80
2021,06,27,05,41,22.80
2021,06,27,05,42,22.80
2021,06,27,05,43,22.80
2021,06,27,05,44,22.90
2021,06,27,05,45,22.90
2021,06,27,05,46,22.90
2021,06,27,05,47,22.90
2021,06,27,05,48,23.00
2021,06,27,05,49,23.00
2021,06,27,05,50,23.00
2021,06,27,05,51,23.10
2021,06,27,05,52,23.10
2021,06,27,05,53,23.10
2021,06,27,05,54,23.10
2021,06,27,05,55,23.10
2021,06,27,05,56,23.10
2021,06,27,05,57,23.20
2021,06,27,05,58,23.20
2021,06,27,05,59,23.20
2021,06,27,06,00,23.20
2021,06,27,06,01,23.20
2021,06,27,06,02,23.20
2021,06,27,06,03,23.20
2021,06,27,06,04,23.20
2021,06,27,06,05,23.20
2021,06,27,06,06,23.30
2021,06,27,06,07,23.30
2021,06,27,06,08,23.30
2021,06,27,06,09,23.30
2021,06,27,06,10,23.30
2021,06,27,06,11,23.30
2021,06,27,06,12,23.30
2021,06,27,06,13,23.30
2021,06,27,06,14,23.30
2021,06,27,06,15,23.30
2021,06,27,06,16,23.40
2021,06,27,06,17,23.40
2021,06,27,06,18,23.40
2021,06,27,06,19,23.40
2021,06,27,06,20,23.50
2021,06,27,06,21,23.50
2021,06,27,06,22,23.50
2021,06,27,06,23,23.60
2021,06,27,06,24,23.60
2021,06,27,06,25,23.60
2021,06,27,06,26,23.60
2021,06,27,06,27,23.60
2021,06,27,06,28,23.70
2021,06,27,06,29,23.70
2021,06,27,06,30,23.70
2021,06,27,06,31,23.80
2021,06,27,06,32,23.80
2021,06,27,06,33,23.90
2021,06,27,06,34,24.00
2021,06,27,06,35,24.00
2021,06,27,06,36,24.10
2021,06,27,06,37,24.20
2021,06,27,06,38,24.30
2021,06,27,06,39,24.40
2021,06,27,06,40,24.50
2021,06,27,06,41,24.60
2021,06,27,06,42,24.80
2021,06,27,06,43,25.10
2021,06,27,06,44,25.40
2021,06,27,06,45,25.70
2021,06,27,06,46,26.00
2021,06,27,06,47,26.20
2021,06,27,06,48,26.50
2021,06,27,06,49,26.60
2021,06,27,06,50,26.80
2021,06,27,06,51,26.90
2021,06,27,06,52,27.00
2021,06,27,06,53,27.10
2021,06,27,06,54,27.30
2021,06,27,06,55,27.30
2021,06,27,06,56,27.50
2021,06,27,06,57,27.50
2021,06,27,06,58,27.60
2021,06,27,06,59,27.60
2021,06,27,07,00,27.70
2021,06,27,07,01,27.80
2021,06,27,07,02,27.80
2021,06,27,07,03,27.80
2021,06,27,07,04,27.90
2021,06,27,07,05,27.90
2021,06,27,07,06,27.90
2021,06,27,07,07,27.90
2021,06,27,07,08,27.90
2021,06,27,07,09,27.90
2021,06,27,07,10,27.90
2021,06,27,07,11,27.90
2021,06,27,07,12,27.90
2021,06,27,07,13,27.90
2021,06,27,07,14,27.90
2021,06,27,07,15,27.90
2021,06,27,07,16,27.90
2021,06,27,07,17,27.90
2021,06,27,07,18,28.00
2021,06,27,07,19,28.00
2021,06,27,07,20,28.00
2021,06,27,07,21,28.00
2021,06,27,07,22,28.00
2021,06,27,07,23,28.00
2021,06,27,07,24,28.00
2021,06,27,07,25,28.00
2021,06,27,07,26,28.00
2021,06,27,07,27,28.00
2021,06,27,07,28,28.00
2021,06,27,07,29,28.00
2021,06,27,07,30,28.00
2021,06,27,07,31,28.00
2021,06,27,07,32,28.10
2021,06,27,07,33,28.10
2021,06,27,07,34,28.10
2021,06,27,07,35,28.10
2021,06,27,07,36,28.20
2021,06,27,07,37,28.30
2021,06,27,07,38,28.30
2021,06,27,07,39,28.30
2021,06,27,07,40,28.30
2021,06,27,07,41,28.30
2021,06,27,07,42,28.40
2021,06,27,07,43,28.40
2021,06,27,07,44,28.40
2021,06,27,07,45,28.40
2021,06,27,07,46,28.40
2021,06,27,07,47,28.50
2021,06,27,07,48,28.50
2021,06,27,07,49,28.60
2021,06,27,07,50,28.60
2021,06,27,07,51,28.60
2021,06,27,07,52,28.60
2021,06,27,07,53,28.60
2021,06,27,07,54,28.60
2021,06,27,07,55,28.60
2021,06,27,07,56,28.60
2021,06,27,07,57,28.60
2021,06,27,07,58,28.60
2021,06,27,07,59,28.60
2021,06,27,08,00,28.60
2021,06,27,08,01,28.70
2021,06,27,08,02,28.70
2021,06,27,08,03,28.70
2021,06,27,08,04,28.70
2021,06,27,08,05,28.70
2021,06,27,08,06,28.80
2021,06,27,08,07,28.80
2021,06,27,08,08,28.90
2021,06,27,08,09,28.90
2021,06,27,08,10,29.00
2021,06,27,08,11,29.00
2021,06,27,08,12,29.10
2021,06,27,08,13,29.10
2021,06,27,08,14,29.20
2021,06,27,08,15,29.20
2021,06,27,08,16,29.30
2021,06,27,08,17,29.30
2021,06,27,08,18,29.40
2021,06,27,08,19,29.40
2021,06,27,08,20,29.40
2021,06,27,08,21,29.40
2021,06,27,08,22,29.40
2021,06,27,08,23,29.40
2021,06,27,08,24,29.40
2021,06,27,08,25,29.40
2021,06,27,08,26,29.40
2021,06,27,08,27,29.50
2021,06,27,08,28,29.50
2021,06,27,08,29,29.50
2021,06,27,08,30,29.50
2021,06,27,08,31,29.40
2021,06,27,08,32,29.40
2021,06,27,08,33,29.40
2021,06,27,08,34,29.30
2021,06,27,08,35,29.30
2021,06,27,08,36,29.30
2021,06,27,08,37,29.30
2021,06,27,08,38,29.40
2021,06,27,08,39,29.40
2021,06,27,08,40,29.40
2021,06,27,08,41,29.40
2021,06,27,08,42,29.40
2021,06,27,08,43,29.50
2021,06,27,08,44,29.40
2021,06,27,08,45,29.40
2021,06,27,08,46,29.40
2021,06,27,08,47,29.40
2021,06,27,08,48,29.50
2021,06,27,08,49,29.50
2021,06,27,08,50,29.50
2021,06,27,08,51,29.40
2021,06,27,08,52,29.40
2021,06,27,08,53,29.40
2021,06,27,08,54,29.40
2021,06,27,08,55,29.40
2021,06,27,08,56,29.40
2021,06,27,08,57,29.50
2021,06,27,08,58,29.50
2021,06,27,08,59,29.60
2021,06,27,09,00,29.60
2021,06,27,09,01,29.70
2021,06,27,09,02,29.70
2021,06,27,09,03,29.80
2021,06,27,09,04,29.80
2021,06,27,09,05,29.70
2021,06,27,09,06,29.80
2021,06,27,09,07,29.80
2021,06,27,09,08,29.80
2021,06,27,09,09,29.80
2021,06,27,09,10,29.80
2021,06,27,09,11,29.80
2021,06,27,09,12,29.70
2021,06,27,09,13,29.70
2021,06,27,09,14,29.60
2021,06,27,09,15,29.60
2021,06,27,09,16,29.60
2021,06,27,09,17,29.60
2021,06,27,09,18,29.60
2021,06,27,09,19,29.60
2021,06,27,09,20,29.70
2021,06,27,09,21,29.80
2021,06,27,09,22,29.80
2021,06,27,09,23,29.80
2021,06,27,09,24,29.80
2021,06,27,09,25,29.70
2021,06,27,09,26,29.60
2021,06,27,09,27,29.60
2021,06,27,09,28,29.50
2021,06,27,09,29,29.40
2021,06,27,09,30,29.40
2021,06,27,09,31,29.40
2021,06,27,09,32,29.40
2021,06,27,09,33,29.30
2021,06,27,09,34,29.30
2021,06,27,09,35,29.30
2021,06,27,09,36,29.30
2021,06,27,09,37,29.30
2021,06,27,09,38,29.30
2021,06,27,09,39,29.40
2021,06,27,09,40,29.40
2021,06,27,09,41,29.40
2021,06,27,09,42,29.40
2021,06,27,09,43,29.40
2021,06,27,09,44,29.40
2021,06,27,09,45,29.40
2021,06,27,09,46,29.40
2021,06,27,09,47,29.40
2021,06,27,09,48,29.40
2021,06,27,09,49,29.40
2021,06,27,09,50,29.40
2021,06,27,09,51,29.40
2021,06,27,09,52,29.50
2021,06,27,09,53,29.50
2021,06,27,09,54,29.60
2021,06,27,09,55,29.60
2021,06,27,09,56,29.70
2021,06,27,09,57,29.80
2021,06,27,09,58,29.80
2021,06,27,09,59,29.90
2021,06,27,10,00,30.00
2021,06,27,10,01,30.10
2021,06,27,10,02,30.20
2021,06,27,10,03,30.20
2021,06,27,10,04,30.30
2021,06,27,10,05,30.40
2021,06,27,10,06,30.50
2021,06,27,10,07,30.60
2021,06,27,10,08,30.70
2021,06,27,10,09,30.80
2021,06,27,10,10,30.90
2021,06,27,10,11,30.90
2021,06,27,10,12,31.00
2021,06,27,10,13,31.00
2021,06,27,10,14,31.00
2021,06,27,10,15,31.00
2021,06,27,10,16,31.00
2021,06,27,10,17,30.90
2021,06,27,10,18,30.90
2021,06,27,10,19,30.90
2021,06,27,10,20,30.90
2021,06,27,10,21,30.80
2021,06,27,10,22,30.80
2021,06,27,10,23,30.80
2021,06,27,10,24,30.80
2021,06,27,10,25,30.90
2021,06,27,10,26,30.90
2021,06,27,10,27,30.90
2021,06,27,10,28,30.90
2021,06,27,10,29,31.00
2021,06,27,10,30,31.10
2021,06,27,10,31,31.10
2021,06,27,10,32,31.10
2021,06,27,10,33,31.20
2021,06,27,10,34,31.20
2021,06,27,10,35,31.30
2021,06,27,10,36,31.30
2021,06,27,10,37,31.30
2021,06,27,10,38,31.30
2021,06,27,10,39,31.30
2021,06,27,10,40,31.20
2021,06,27,10,41,31.10
2021,06,27,10,42,31.00
2021,06,27,10,43,30.90
2021,06,27,10,44,30.80
2021,06,27,10,45,30.70
2021,06,27,10,46,30.70
2021,06,27,10,47,30.60
2021,06,27,10,48,30.60
2021,06,27,10,49,30.60
2021,06,27,10,50,30.50
2021,06,27,10,51,30.60
2021,06,27,10,52,30.50
2021,06,27,10,53,30.50
2021,06,27,10,54,30.60
2021,06,27,10,55,30.60
2021,06,27,10,56,30.70
2021,06,27,10,57,30.70
2021,06,27,10,58,30.80
2021,06,27,10,59,30.90
2021,06,27,11,00,30.90
2021,06,27,11,01,30.90
2021,06,27,11,02,31.00
2021,06,27,11,03,31.00
2021,06,27,11,04,31.10
2021,06,27,11,05,31.10
2021,06,27,11,06,31.10
2021,06,27,11,07,31.10
2021,06,27,11,08,31.10
2021,06,27,11,09,31.20
2021,06,27,11,10,31.20
2021,06,27,11,11,31.30
2021,06,27,11,12,31.30
2021,06,27,11,13,31.30
2021,06,27,11,14,31.40
2021,06,27,11,15,31.50
2021,06,27,11,16,31.50
2021,06,27,11,17,31.50
2021,06,27,11,18,31.60
2021,06,27,11,19,31.60
2021,06,27,11,20,31.60
2021,06,27,11,21,31.60
2021,06,27,11,22,31.70
2021,06,27,11,23,31.70
2021,06,27,11,24,31.80
2021,06,27,11,25,32.00
2021,06,27,11,26,32.10
2021,06,27,11,27,32.10
2021,06,27,11,28,32.10
2021,06,27,11,29,32.10
2021,06,27,11,30,32.10
2021,06,27,11,31,32.20
2021,06,27,11,32,32.20
2021,06,27,11,33,32.10
2021,06,27,11,34,32.00
2021,06,27,11,35,32.00
2021,06,27,11,36,32.00
2021,06,27,11,37,32.00
2021,06,27,11,38,31.90
2021,06,27,11,39,31.90
2021,06,27,11,40,31.90
2021,06,27,11,41,31.90
2021,06,27,11,42,31.90
2021,06,27,11,43,31.90
2021,06,27,11,44,31.80
2021,06,27,11,45,31.80
2021,06,27,11,46,31.70
2021,06,27,11,47,31.60
2021,06,27,11,48,31.50
2021,06,27,11,49,31.50
2021,06,27,11,50,31.50
2021,06,27,11,51,31.50
2021,06,27,11,52,31.50
2021,06,27,11,53,31.40
2021,06,27,11,54,31.40
2021,06,27,11,55,31.50
2021,06,27,11,56,31.50
2021,06,27,11,57,31.60
2021,06,27,11,58,31.70
2021,06,27,11,59,31.70
2021,06,27,12,00,31.70
2021,06,27,12,01,31.70
2021,06,27,12,02,31.80
2021,06,27,12,03,31.80
2021,06,27,12,04,31.80
2021,06,27,12,05,31.80
2021,06,27,12,06,31.80
2021,06,27,12,07,31.80
2021,06,27,12,08,31.80
2021,06,27,12,09,31.80
2021,06,27,12,10,31.90
2021,06,27,12,11,32.10
2021,06,27,12,12,32.20
2021,06,27,12,13,32.30
2021,06,27,12,14,32.40
2021,06,27,12,15,32.30
2021,06,27,12,16,32.20
2021,06,27,12,17,32.00
2021,06,27,12,18,32.00
2021,06,27,12,19,31.90
2021,06,27,12,20,31.80
2021,06,27,12,21,31.80
2021,06,27,12,22,31.80
2021,06,27,12,23,31.80
2021,06,27,12,24,31.80
2021,06,27,12,25,31.80
2021,06,27,12,26,31.80
2021,06,27,12,27,31.90
2021,06,27,12,28,32.00
2021,06,27,12,29,32.20
2021,06,27,12,30,32.30
2021,06,27,12,31,32.40
2021,06,27,12,32,32.30
2021,06,27,12,33,32.40
2021,06,27,12,34,32.50
2021,06,27,12,35,32.50
2021,06,27,12,36,32.60
2021,06,27,12,37,32.60
2021,06,27,12,38,32.60
2021,06,27,12,39,32.60
2021,06,27,12,40,32.60
2021,06,27,12,41,32.50
2021,06,27,12,42,32.50
2021,06,27,12,43,32.50
2021,06,27,12,44,32.50
2021,06,27,12,45,32.60
2021,06,27,12,46,32.50
2021,06,27,12,47,32.50
2021,06,27,12,48,32.40
2021,06,27,12,49,32.30
2021,06,27,12,50,32.20
2021,06,27,12,51,32.20
2021,06,27,12,52,32.20
2021,06,27,12,53,32.20
2021,06,27,12,54,32.20
2021,06,27,12,55,32.20
2021,06,27,12,56,32.30
2021,06,27,12,57,32.40
2021,06,27,12,58,32.50
2021,06,27,12,59,32.60
2021,06,27,13,00,32.70
2021,06,27,13,01,32.80
2021,06,27,13,02,32.90
2021,06,27,13,03,33.00
2021,06,27,13,04,32.90
2021,06,27,13,05,32.90
2021,06,27,13,06,32.90
2021,06,27,13,07,32.80
2021,06,27,13,08,32.80
2021,06,27,13,09,32.90
2021,06,27,13,10,33.00
2021,06,27,13,11,33.10
2021,06,27,13,12,33.10
2021,06,27,13,13,33.20
2021,06,27,13,14,33.30
2021,06,27,13,15,33.40
2021,06,27,13,16,33.40
2021,06,27,13,17,33.40
2021,06,27,13,18,33.40
2021,06,27,13,19,33.40
2021,06,27,13,20,33.50
2021,06,27,13,21,33.50
2021,06,27,13,22,33.60
2021,06,27,13,23,33.60
2021,06,27,13,24,33.60
2021,06,27,13,25,33.70
2021,06,27,13,26,33.70
2021,06,27,13,27,33.80
2021,06,27,13,28,33.90
2021,06,27,13,29,33.90
2021,06,27,13,30,33.90
2021,06,27,13,31,34.00
2021,06,27,13,32,34.00
2021,06,27,13,33,34.00
2021,06,27,13,34,34.00
2021,06,27,13,35,34.10
2021,06,27,13,36,34.20
2021,06,27,13,37,34.20
2021,06,27,13,38,34.30
2021,06,27,13,39,34.20
2021,06,27,13,40,34.20
2021,06,27,13,41,34.20
2021,06,27,13,42,34.20
2021,06,27,13,43,34.20
2021,06,27,13,44,34.20
2021,06,27,13,45,34.10
2021,06,27,13,46,34.10
2021,06,27,13,47,34.10
2021,06,27,13,48,34.10
2021,06,27,13,49,34.10
2021,06,27,13,50,34.10
2021,06,27,13,51,34.10
2021,06,27,13,52,34.10
2021,06,27,13,53,34.10
2021,06,27,13,54,34.10
2021,06,27,13,55,34.20
2021,06,27,13,56,34.20
2021,06,27,13,57,34.20
2021,06,27,13,58,34.30
2021,06,27,13,59,34.30
2021,06,27,14,00,34.30
2021,06,27,14,01,34.30
2021,06,27,14,02,34.30
2021,06,27,14,03,34.30
2021,06,27,14,04,34.20
2021,06,27,14,05,34.10
2021,06,27,14,06,34.10
2021,06,27,14,07,34.10
2021,06,27,14,08,34.10
2021,06,27,14,09,34.10
2021,06,27,14,10,34.10
2021,06,27,14,11,34.10
2021,06,27,14,12,34.10
2021,06,27,14,13,34.10
2021,06,27,14,14,34.10
2021,06,27,14,15,34.20
2021,06,27,14,16,34.20
2021,06,27,14,17,34.30
2021,06,27,14,18,34.40
2021,06,27,14,19,34.50
2021,06,27,14,20,34.60
2021,06,27,14,21,34.60
2021,06,27,14,22,34.70
2021,06,27,14,23,34.60
2021,06,27,14,24,34.50
2021,06,27,14,25,34.50
2021,06,27,14,26,34.40
2021,06,27,14,27,34.30
2021,06,27,14,28,34.30
2021,06,27,14,29,34.20
2021,06,27,14,30,34.20
2021,06,27,14,31,34.10
2021,06,27,14,32,34.10
2021,06,27,14,33,34.10
2021,06,27,14,34,34.10
2021,06,27,14,35,34.10
2021,06,27,14,36,34.10
2021,06,27,14,37,34.10
2021,06,27,14,38,34.20
2021,06,27,14,39,34.30
2021,06,27,14,40,34.40
2021,06,27,14,41,34.50
2021,06,27,14,42,34.60
2021,06,27,14,43,34.60
2021,06,27,14,44,34.70
2021,06,27,14,45,34.70
2021,06,27,14,46,34.80
2021,06,27,14,47,34.90
2021,06,27,14,48,35.00
2021,06,27,14,49,35.00
2021,06,27,14,50,35.10
2021,06,27,14,51,35.10
2021,06,27,14,52,35.10
2021,06,27,14,53,35.10
2021,06,27,14,54,35.10
2021,06,27,14,55,35.10
2021,06,27,14,56,35.20
2021,06,27,14,57,35.30
2021,06,27,14,58,35.30
2021,06,27,14,59,35.40
2021,06,27,15,00,35.50
2021,06,27,15,01,35.60
2021,06,27,15,02,35.60
2021,06,27,15,03,35.60
2021,06,27,15,04,35.70
2021,06,27,15,05,35.70
2021,06,27,15,06,35.80
2021,06,27,15,07,35.80
2021,06,27,15,08,35.80
2021,06,27,15,09,35.80
2021,06,27,15,10,35.80
2021,06,27,15,11,35.70
2021,06,27,15,12,35.70
2021,06,27,15,13,35.60
2021,06,27,15,14,35.60
2021,06,27,15,15,35.50
2021,06,27,15,16,35.60
2021,06,27,15,17,35.60
2021,06,27,15,18,35.60
2021,06,27,15,19,35.60
2021,06,27,15,20,35.60
2021,06,27,15,21,35.60
2021,06,27,15,22,35.60
2021,06,27,15,23,35.60
2021,06,27,15,24,35.60
2021,06,27,15,25,35.60
2021,06,27,15,26,35.60
2021,06,27,15,27,35.60
2021,06,27,15,28,35.50
2021,06,27,15,29,35.50
2021,06,27,15,30,35.40
2021,06,27,15,31,35.40
2021,06,27,15,32,35.40
2021,06,27,15,33,35.50
2021,06,27,15,34,35.50
2021,06,27,15,35,35.60
2021,06,27,15,36,35.70
2021,06,27,15,37,35.70
2021,06,27,15,38,35.80
2021,06,27,15,39,35.90
2021,06,27,15,40,36.00
2021,06,27,15,41,36.00
2021,06,27,15,42,36.10
2021,06,27,15,43,36.20
2021,06,27,15,44,36.20
2021,06,27,15,45,36.20
2021,06,27,15,46,36.20
2021,06,27,15,47,36.10
2021,06,27,15,48,36.00
2021,06,27,15,49,35.90
2021,06,27,15,50,35.80
2021,06,27,15,51,35.70
2021,06,27,15,52,35.70
2021,06,27,15,53,35.60
2021,06,27,15,54,35.60
2021,06,27,15,55,35.60
2021,06,27,15,56,35.60
2021,06,27,15,57,35.70
2021,06,27,15,58,35.70
2021,06,27,15,59,35.80
2021,06,27,16,00,35.80
2021,06,27,16,01,35.90
2021,06,27,16,02,36.00
2021,06,27,16,03,36.00
2021,06,27,16,04,36.10
2021,06,27,16,05,36.10
2021,06,27,16,06,36.10
2021,06,27,16,07,36.00
2021,06,27,16,08,36.00
2021,06,27,16,09,35.90
2021,06,27,16,10,35.90
2021,06,27,16,11,35.80
2021,06,27,16,12,35.70
2021,06,27,16,13,35.60
2021,06,27,16,14,35.50
2021,06,27,16,15,35.40
2021,06,27,16,16,35.30
2021,06,27,16,17,35.30
2021,06,27,16,18,35.20
2021,06,27,16,19,35.20
2021,06,27,16,20,35.20
2021,06,27,16,21,35.10
2021,06,27,16,22,35.20
2021,06,27,16,23,35.20
2021,06,27,16,24,35.20
2021,06,27,16,25,35.20
2021,06,27,16,26,35.20
2021,06,27,16,27,35.20
2021,06,27,16,28,35.20
2021,06,27,16,29,35.30
2021,06,27,16,30,35.30
2021,06,27,16,31,35.30
2021,06,27,16,32,35.30
2021,06,27,16,33,35.40
2021,06,27,16,34,35.40
2021,06,27,16,35,35.40
2021,06,27,16,36,35.40
2021,06,27,16,37,35.50
2021,06,27,16,38,35.50
2021,06,27,16,39,35.50
2021,06,27,16,40,35.50
2021,06,27,16,41,35.60
2021,06,27,16,42,35.60
2021,06,27,16,43,35.60
2021,06,27,16,44,35.70
2021,06,27,16,45,35.70
2021,06,27,16,46,35.70
2021,06,27,16,47,35.80
2021,06,27,16,48,35.80
2021,06,27,16,49,35.80
2021,06,27,16,50,35.90
2021,06,27,16,51,36.00
2021,06,27,16,52,36.10
2021,06,27,16,53,36.20
2021,06,27,16,54,36.30
2021,06,27,16,55,36.40
2021,06,27,16,56,36.40
2021,06,27,16,57,36.50
2021,06,27,16,58,36.50
2021,06,27,16,59,36.50
2021,06,27,17,00,36.50
2021,06,27,17,01,36.50
2021,06,27,17,02,36.60
2021,06,27,17,03,36.60
2021,06,27,17,04,36.60
2021,06,27,17,05,36.50
2021,06,27,17,06,36.50
2021,06,27,17,07,36.50
2021,06,27,17,08,36.40
2021,06,27,17,09,36.40
2021,06,27,17,10,36.30
2021,06,27,17,11,36.30
2021,06,27,17,12,36.30
2021,06,27,17,13,36.30
2021,06,27,17,14,36.20
2021,06,27,17,15,36.20
2021,06,27,17,16,36.20
2021,06,27,17,17,36.20
2021,06,27,17,18,36.10
2021,06,27,17,19,36.10
2021,06,27,17,20,36.10
2021,06,27,17,21,36.10
2021,06,27,17,22,36.20